[[{"header":{"parameterUnit":"m.s-1","parameterCategory":1,"la1":30.2991,"la2":30.254,"lo1":-89.0895,"lo2":-89.0444,"dy":0.0017,"dx":0.0017,"nx":28,"ny":28,"refTime":"2023-07-19T03:00:00:Z","depth":0,"parameterNumber":2,"parameterNumberName":"U-component_of_WINDS"},"data":[0,0,0,0,0,0,0,0,0,0,0,0,0,0,0,0,0,0,0,0,0,0,0,0,0,0,0,0,0,0,0,0,0,0,0,0,0,0,0,0,0,0,0,0,0,0,0,0,0,0,0,0,0,0,0,0,0,0,0.8114,0.8114,0,0.8143,0.8143,0.8144,0.8149,0.8149,0.8149,0.8149,0.8183,0.8184,0.8186,0,0,0,0,0,0,0,0,0,0,0,0,0,0.8067,0.8068,0.8114,0.8114,0.8115,0.8143,0.8143,0.8144,0.8149,0.8149,0.8149,0.8148,0.8183,0.8184,0.8186,0,0,0,0,0,0,0,0,0,0,0,0,0,0.8091,0.8069,0.8114,0.8121,0.8122,0.8143,0.8143,0.8144,0.8149,0.8149,0.8149,0.8148,0.8182,0.8184,0.8186,0.8204,0,0,0.8191,0.8192,0,0,0,0,0,0,0,0,0.809,0.8093,0.8119,0.812,0.8121,0.8142,0.814,0.8164,0.8149,0.8139,0.8149,0.8148,0.817,0.8173,0.8179,0.8205,0.8207,0.8191,0.8192,0.8193,0.8194,0,0,0,0,0,0,0,0.8088,0.8092,0.8125,0.812,0.8121,0.8124,0.8127,0.8144,0.8156,0.814,0.814,0.8143,0.8171,0.8178,0.818,0.8207,0.8191,0.8193,0.8194,0.8194,0.825,0.8251,0,0,0,0,0,0,0.8085,0.809,0.8125,0.8126,0.8104,0.8125,0.8128,0.8136,0.8156,0.8159,0.8144,0.8144,0.8175,0.8178,0.8181,0.8204,0.8193,0.8195,0.8196,0.825,0.825,0.8251,0,0,0,0,0,0,0.8084,0.8088,0.8123,0.8108,0.8113,0.8126,0.8135,0.8137,0.8143,0.8159,0.8162,0.8148,0.8175,0.8179,0.8198,0.8205,0.8195,0.8197,0.8249,0.825,0.8251,0.8249,0,0,0,0,0,0,0.8082,0.8087,0.8093,0.8108,0.8114,0.8138,0.8135,0.8137,0.8146,0.8146,0.8164,0.8167,0.8175,0.8195,0.82,0.8207,0.8198,0.8249,0.825,0.825,0.8248,0.8249,0.825,0,0,0,0,0,0.8081,0.8093,0.8093,0.8098,0.8121,0.8138,0.8142,0.8149,0.8146,0.8153,0.8163,0.8166,0.8204,0.8197,0.8202,0.8211,0.8248,0.8249,0.825,0.8248,0.8249,0.825,0,0,0,0,0,0,0.808,0.8095,0.8096,0.8113,0.8124,0.8139,0.8148,0.815,0.8164,0.8164,0.8174,0.8178,0.8196,0.8205,0.8198,0.8229,0.8226,0.8228,0.8223,0.8224,0.8225,0.8223,0.82,0,0,0,0,0,0.8081,0.8092,0.8105,0.8119,0.8124,0.8135,0.8143,0.8148,0.816,0.8166,0.8177,0.8191,0.8206,0.8215,0.823,0.825,0.8254,0.8258,0.8259,0.826,0.8262,0.8273,0.8275,0.8254,0.8254,0.8254,0,0,0.8085,0.8094,0.8101,0.8119,0.8128,0.8141,0.8139,0.8153,0.8163,0.8168,0.8186,0.8195,0.8211,0.8231,0.824,0.8239,0.8268,0.8261,0.8261,0.8263,0.8274,0.8276,0.8278,0.8255,0.8255,0.8255,0,0,0.8098,0.8106,0.8118,0.8127,0.814,0.8147,0.815,0.8165,0.8171,0.8189,0.8193,0.8206,0.8231,0.8242,0.8251,0.8268,0.8272,0.8273,0.8278,0.8289,0.8291,0.8293,0.8299,0.8301,0.8274,0.8274,0.8274,0,0.8101,0.8119,0.8125,0.8137,0.8146,0.8149,0.8163,0.8172,0.819,0.8196,0.8194,0.8226,0.8237,0.8259,0.8263,0.827,0.8275,0.8271,0.829,0.8292,0.8293,0.8299,0.8302,0.8274,0.8274,0.8274,0.8274,0,0.8122,0.8134,0.8143,0.8159,0.8168,0.8181,0.819,0.8199,0.8203,0.821,0.8229,0.8242,0.826,0.8265,0.827,0.8289,0.8287,0.8288,0.8285,0.8295,0.8301,0.8304,0.8274,0.8274,0.8274,0.8274,0,0,0.8136,0.8154,0.8157,0.8164,0.8179,0.8189,0.8203,0.8218,0.8226,0.8239,0.8251,0.8272,0.8272,0.8282,0.8288,0.8298,0.8311,0.8297,0.8298,0.83,0.8333,0.8333,0.8336,0.8313,0.8314,0.8314,0.8332,0,0.8151,0.8174,0.8179,0.8199,0.8211,0.8215,0.8227,0.8239,0.8246,0.8258,0.8268,0.8282,0.8281,0.8287,0.8297,0.8307,0.8318,0.8306,0.8326,0.8327,0.8322,0.8339,0.8339,0.8355,0.8334,0.8335,0.8335,0,0.8172,0.8183,0.8203,0.8217,0.8222,0.8232,0.8247,0.8258,0.8272,0.8276,0.8287,0.8292,0.8308,0.8304,0.8327,0.8318,0.8327,0.8333,0.8334,0.8337,0.8332,0.8342,0.836,0.8362,0.8339,0.8338,0.8338,0,0.818,0.82,0.8215,0.8221,0.8237,0.8244,0.8252,0.8264,0.8273,0.8286,0.8292,0.8308,0.8317,0.8329,0.8339,0.8335,0.8361,0.8357,0.8366,0.8366,0.8372,0.8372,0.8392,0.8377,0.8377,0.8377,0.8377,0,0.8196,0.8209,0.8219,0.8228,0.8243,0.825,0.8265,0.8273,0.8284,0.8296,0.8301,0.8312,0.8323,0.8337,0.8345,0.8363,0.8367,0.8372,0.8374,0.8372,0.8371,0.8378,0.8377,0.8378,0.8377,0.8377,0.8377,0,0.8208,0.8215,0.8232,0.8245,0.8249,0.8259,0.8271,0.8281,0.8288,0.8303,0.8307,0.832,0.8335,0.8346,0.8367,0.8372,0.8392,0.8393,0.8387,0.8388,0.8396,0.8396,0.8422,0.8426,0.8408,0.8408,0.8408,0,0.8218,0.8228,0.8242,0.8249,0.8256,0.8268,0.8277,0.8284,0.8293,0.8309,0.8317,0.8333,0.8346,0.8372,0.8384,0.84,0.8402,0.841,0.8405,0.8402,0.8403,0.8402,0.8403,0.8411,0.8411,0.8412,0.8412,0,0.8236,0.8239,0.825,0.8263,0.8272,0.8283,0.8294,0.83,0.831,0.832,0.8335,0.8345,0.8366,0.8382,0.8399,0.8408,0.8412,0.8413,0.8416,0.8414,0.841,0.8413,0.839,0.8413,0.8413,0.8413,0.8412,0.8412,0.8248,0.8256,0.8267,0.828,0.8288,0.8298,0.8308,0.8316,0.8328,0.8344,0.8348,0.8365,0.8379,0.8401,0.8411,0.8425,0.8424,0.8428,0.843,0.8431,0.8431,0.8407,0.8428,0.8428,0.8428,0.8428,0.8428,0,0.8266,0.8273,0.8284,0.8298,0.8308,0.8309,0.8321,0.833,0.8343,0.8355,0.8367,0.8385,0.8401,0.8413,0.843,0.8439,0.8441,0.8443,0.8443,0.8445,0.843,0.8426,0.8441,0.8441,0.8441,0.8441,0.8441,0.8441,0.8276,0.8291,0.8295,0.8315,0.8322,0.8336,0.8343,0.8353,0.8362,0.8381,0.8394,0.8401,0.8413,0.8431,0.8445,0.8449,0.8455,0.8457,0.8461,0.8447,0.8446,0.8444,0.8441,0.8458,0.8458,0.8474,0.8474,0.8474]},{"header":{"parameterUnit":"m.s-1","parameterCategory":1,"la1":30.2991,"la2":30.254,"lo1":-89.0895,"lo2":-89.0444,"dy":0.0017,"dx":0.0017,"nx":28,"ny":28,"refTime":"2023-07-19T03:00:00:Z","depth":0,"parameterNumber":3,"parameterNumberName":"V-component_of_WINDS"},"data":[0,0,0,0,0,0,0,0,0,0,0,0,0,0,0,0,0,0,0,0,0,0,0,0,0,0,0,0,0,0,0,0,0,0,0,0,0,0,0,0,0,0,0,0,0,0,0,0,0,0,0,0,0,0,0,0,0,0,2.6188,2.6188,0,2.6208,2.6208,2.6208,2.6211,2.6211,2.6211,2.6211,2.6229,2.6229,2.623,0,0,0,0,0,0,0,0,0,0,0,0,0,2.6148,2.6149,2.6188,2.6188,2.6189,2.6208,2.6208,2.6209,2.6211,2.6211,2.6211,2.621,2.6228,2.6229,2.623,0,0,0,0,0,0,0,0,0,0,0,0,0,2.6166,2.6149,2.6188,2.6192,2.6193,2.6208,2.6208,2.6209,2.6211,2.6211,2.6211,2.621,2.6228,2.6229,2.623,2.6242,0,0,2.6233,2.6233,0,0,0,0,0,0,0,0,2.6165,2.6168,2.6191,2.6192,2.6193,2.6207,2.6201,2.622,2.6211,2.6204,2.6211,2.621,2.6221,2.6223,2.6227,2.6242,2.6243,2.6233,2.6234,2.6234,2.6234,0,0,0,0,0,0,0,2.6164,2.6167,2.6196,2.6192,2.6193,2.6192,2.6194,2.6204,2.6214,2.6205,2.6205,2.6207,2.6222,2.6226,2.6228,2.6243,2.6233,2.6234,2.6235,2.6235,2.6266,2.6266,0,0,0,0,0,0,2.6163,2.6166,2.6195,2.6197,2.6178,2.6193,2.6195,2.6203,2.6214,2.6215,2.6208,2.6207,2.6225,2.6226,2.6228,2.6241,2.6234,2.6235,2.6236,2.6266,2.6266,2.6266,0,0,0,0,0,0,2.6162,2.6165,2.6194,2.6181,2.6185,2.6194,2.6202,2.6203,2.6208,2.6216,2.6218,2.6211,2.6225,2.6227,2.6238,2.6241,2.6235,2.6236,2.6265,2.6266,2.6266,2.6267,0,0,0,0,0,0,2.6161,2.6165,2.6171,2.6181,2.6186,2.6205,2.6202,2.6204,2.621,2.621,2.6219,2.6221,2.6225,2.6236,2.6239,2.6243,2.6237,2.6265,2.6265,2.6266,2.6266,2.6267,2.6268,0,0,0,0,0,2.6159,2.617,2.6171,2.6174,2.6193,2.6205,2.6207,2.6212,2.621,2.6215,2.622,2.6221,2.6241,2.6237,2.624,2.6244,2.6265,2.6265,2.6266,2.6266,2.6267,2.6268,0,0,0,0,0,0,2.616,2.6172,2.6173,2.6188,2.6195,2.6206,2.6212,2.6213,2.6221,2.6221,2.6226,2.6228,2.6238,2.6242,2.6238,2.6255,2.6252,2.6253,2.6252,2.6252,2.6253,2.6251,2.6238,0,0,0,0,0,2.6161,2.6171,2.6181,2.6193,2.6197,2.6204,2.6209,2.6212,2.622,2.6223,2.6229,2.6235,2.6243,2.6248,2.6256,2.6267,2.6268,2.6271,2.6271,2.6272,2.6273,2.6277,2.6278,2.6268,2.6268,2.6268,0,0,2.6165,2.6173,2.6179,2.6193,2.62,2.6208,2.6207,2.6216,2.6222,2.6224,2.6234,2.6239,2.6246,2.6257,2.6262,2.6261,2.6275,2.6273,2.6273,2.6273,2.6277,2.6278,2.6279,2.6268,2.6268,2.6268,0,0,2.6177,2.6184,2.6194,2.62,2.6209,2.6213,2.6216,2.6225,2.6228,2.6238,2.6239,2.6246,2.6259,2.6264,2.6268,2.6278,2.6278,2.628,2.6283,2.6287,2.6288,2.6288,2.629,2.6291,2.6281,2.6281,2.6281,0,2.618,2.6194,2.6199,2.6208,2.6213,2.6215,2.6224,2.6229,2.624,2.6243,2.6242,2.6257,2.6263,2.6273,2.6275,2.6279,2.628,2.6279,2.6287,2.6288,2.6289,2.6291,2.6292,2.6281,2.6281,2.6281,2.6281,0,2.6197,2.6206,2.6213,2.6223,2.6229,2.6238,2.6243,2.6248,2.6249,2.6253,2.6262,2.6268,2.6276,2.6278,2.628,2.6288,2.6287,2.6287,2.6284,2.629,2.6292,2.6293,2.6281,2.6281,2.6281,2.6281,0,0,2.6211,2.6222,2.6224,2.6228,2.6237,2.6243,2.6251,2.6259,2.6262,2.6269,2.6274,2.6284,2.6283,2.6288,2.629,2.6293,2.6298,2.6292,2.6292,2.6292,2.6306,2.6306,2.6307,2.6299,2.6299,2.6299,2.6305,0,2.6222,2.6237,2.624,2.6252,2.6259,2.626,2.6266,2.6272,2.6274,2.628,2.6283,2.6289,2.6288,2.6291,2.6294,2.6297,2.6301,2.6297,2.6302,2.6303,2.63,2.6308,2.6308,2.6314,2.6306,2.6306,2.6306,0,2.6238,2.6244,2.6257,2.6263,2.6266,2.6272,2.6278,2.6283,2.6288,2.629,2.6294,2.6295,2.6301,2.6298,2.6306,2.6303,2.6305,2.6307,2.6307,2.6307,2.6304,2.6308,2.6316,2.6316,2.6307,2.6307,2.6307,0,2.6244,2.6256,2.6265,2.6268,2.6275,2.6279,2.6282,2.6287,2.6291,2.6295,2.6297,2.6303,2.6306,2.6309,2.6311,2.6309,2.6318,2.6316,2.6318,2.6318,2.632,2.632,2.6328,2.6322,2.6322,2.6322,2.6322,0,2.6256,2.6263,2.6267,2.6273,2.628,2.6283,2.629,2.6293,2.6296,2.6301,2.6302,2.6306,2.6308,2.6312,2.6314,2.6319,2.632,2.6321,2.6321,2.6321,2.632,2.6322,2.6321,2.6323,2.6323,2.6323,2.6323,0,2.6265,2.6268,2.6277,2.6283,2.6284,2.6289,2.6293,2.6298,2.63,2.6305,2.6307,2.631,2.6314,2.6317,2.6322,2.6323,2.6328,2.6329,2.6327,2.6327,2.6329,2.6328,2.6338,2.6339,2.6333,2.6333,2.6333,0,2.6272,2.6277,2.6283,2.6286,2.6289,2.6295,2.6298,2.63,2.6303,2.6308,2.6311,2.6316,2.632,2.6326,2.6329,2.6332,2.6332,2.6335,2.6333,2.6332,2.6331,2.633,2.633,2.6336,2.6336,2.6336,2.6336,0,2.6283,2.6284,2.6289,2.6294,2.6298,2.6302,2.6306,2.6308,2.6311,2.6314,2.6319,2.6322,2.6327,2.6331,2.6334,2.6336,2.6336,2.6336,2.6337,2.6336,2.6335,2.6335,2.6327,2.6336,2.6336,2.6336,2.6336,2.6336,2.629,2.6294,2.6299,2.6304,2.6306,2.631,2.6313,2.6315,2.6319,2.6324,2.6325,2.6329,2.6332,2.6337,2.6338,2.6341,2.634,2.6342,2.6342,2.6342,2.6341,2.6334,2.6342,2.6342,2.6342,2.6342,2.6342,0,2.6301,2.6303,2.6307,2.6312,2.6316,2.6315,2.6319,2.6322,2.6326,2.6329,2.6332,2.6336,2.6339,2.6341,2.6344,2.6346,2.6346,2.6347,2.6346,2.6346,2.6343,2.6341,2.6347,2.6347,2.6347,2.6347,2.6347,2.6347,2.6306,2.6313,2.6313,2.632,2.6322,2.6327,2.6329,2.6331,2.6333,2.6338,2.6341,2.6342,2.6344,2.6347,2.6349,2.6349,2.635,2.6351,2.6351,2.6347,2.6347,2.6346,2.6345,2.6351,2.6351,2.6355,2.6355,2.6355]}]]